User: anonymous   Login
Location: Unspecified
(0.0000°N, 0.0000°E)
Time: 06:55:58
(UTC+00:00)
Language:

OBJECT F - Orbit

View from above orbital plane
View from above orbital plane
View from above satellite
View from above satellite

Ground track
Ground track

The orbit is defined by the following mean orbital elements,

1 67440U          26145.43492306 +.00000000 +00000-0 +95433-4 0 00001
2 67440  50.0099 167.3478 0000872 283.3958  76.6817 13.29325295    03
Epoch (UTC): 25 May 2026 10:26:17
Eccentricity: 0.0000872
inclination: 50.0099°
perigee height: 1149 km
apogee height: 1150 km
right ascension of ascending node: 167.3478°
argument of perigee: 283.3958°
revolutions per day: 13.29325295
mean anomaly at epoch: 76.6817°

The dashed part of the orbit path shows where the satellite is in the earth's shadow,  

DLR